Location: WHS+Essen
(51.3947°N, 6.9794°E)
Time: 16:59:20
(UTC+02:00)

ISS - Pass Details

Date: 28 May 2019
Orbit: 407 x 419 km, 51.6° (Epoch: 26 June)

Event Time Altitude Azimuth Distance (km) Brightness Sun altitude
Rises 22:27:44 0° 279° (W) 2,356 1.0 -6.9°
Reaches altitude 10° 22:29:50 10° 279° (W) 1,494 -0.1 -7.2°
Maximum altitude 22:33:11 83° 193° (SSW) 426 -3.8 -7.5°
Drops below altitude 10° 22:36:33 10° 104° (ESE) 1,498 -1.4 -7.8°
Enters shadow 22:37:14 - 104° (ESE) 1,778 -1.1 -7.9°
